[[[{"header":{"parameterUnit":"kt","parameterCategory":2,"dx":1,"dy":1,"la1":30.253999710083008,"la2":30.299108505249023,"lo1":-89.0895004272461,"lo2":-89.04439544677734,"nx":28,"ny":28,"refTime":"2022-10-06T21:00:00:Z","depth":"0","parameterNumber":2,"parameterNumberName":"U-component_of_CURRENTS"},"data":[-0.5686,-0.5316,-0.523,-0.4584,-0.444,-0.3952,-0.3746,-0.361,-0.3383,-0.2957,-0.26,-0.237,-0.2073,-0.1905,-0.1651,-0.1596,-0.1586,-0.1506,-0.1542,-0.1829,-0.188,-0.1929,-0.207,-0.1447,-0.1447,-0.1232,-0.123,-0.1229,-0.5993,-0.5866,-0.5713,-0.5405,-0.5098,-0.5211,-0.4931,-0.4644,-0.4276,-0.4053,-0.3707,-0.3137,-0.2683,-0.2365,-0.1979,-0.1852,-0.1874,-0.1835,-0.1899,-0.1902,-0.2179,-0.2316,-0.1736,-0.1736,-0.1736,-0.1736,-0.1736,-0.1736,-0.6464,-0.6356,-0.6212,-0.5994,-0.5866,-0.5652,-0.5377,-0.5261,-0.4939,-0.4472,-0.4424,-0.391,-0.3482,-0.2815,-0.2629,-0.2298,-0.2442,-0.2296,-0.2349,-0.2364,-0.2435,-0.2832,-0.2253,-0.2254,-0.2256,-0.2257,-0.2258,0,-0.6713,-0.67,-0.6606,-0.6463,-0.6317,-0.6123,-0.592,-0.5752,-0.5511,-0.5247,-0.4842,-0.4569,-0.3964,-0.3496,-0.3034,-0.2874,-0.2921,-0.2844,-0.2798,-0.2925,-0.2939,-0.2871,-0.34,-0.2857,-0.2862,-0.2865,-0.2868,-0.287,-0.6826,-0.6853,-0.6787,-0.6687,-0.6659,-0.6511,-0.6335,-0.618,-0.5956,-0.5533,-0.5317,-0.4867,-0.451,-0.3871,-0.3619,-0.3226,-0.3325,-0.297,-0.3245,-0.3206,-0.3216,-0.3259,-0.3256,-0.2924,-0.2917,-0.2911,-0.2907,0,-0.6817,-0.6883,-0.6858,-0.6819,-0.6775,-0.6687,-0.6432,-0.6241,-0.6064,-0.57,-0.5592,-0.5254,-0.484,-0.4601,-0.4205,-0.4126,-0.37,-0.3679,-0.3632,-0.355,-0.3325,-0.3398,-0.2828,-0.2764,-0.3216,-0.321,-0.3205,0,-0.6814,-0.6817,-0.6846,-0.6871,-0.6749,-0.6737,-0.653,-0.6418,-0.6166,-0.5888,-0.5774,-0.5486,-0.5293,-0.4971,-0.4856,-0.4429,-0.4401,-0.4303,-0.4209,-0.4192,-0.4184,-0.403,-0.4095,-0.4354,-0.4359,-0.4364,-0.4368,0,-0.6771,-0.6806,-0.6832,-0.6838,-0.6784,-0.6725,-0.6653,-0.6455,-0.6287,-0.6048,-0.585,-0.5622,-0.5418,-0.5234,-0.5019,-0.5137,-0.4561,-0.4677,-0.4399,-0.4386,-0.4184,-0.4166,-0.3789,-0.4374,-0.4376,-0.4377,-0.4379,0,-0.676,-0.6802,-0.6845,-0.6795,-0.6776,-0.6754,-0.6568,-0.6505,-0.6273,-0.6159,-0.5975,-0.5862,-0.5636,-0.5741,-0.534,-0.55,-0.5332,-0.5197,-0.517,-0.5046,-0.5049,-0.445,-0.4192,-0.4137,-0.4848,-0.4854,-0.4859,0,-0.6726,-0.6806,-0.6808,-0.6808,-0.6822,-0.6746,-0.668,-0.6568,-0.6463,-0.6297,-0.6163,-0.6012,-0.6077,-0.5975,-0.5871,-0.5687,-0.5503,-0.5776,-0.5237,-0.5219,-0.5128,-0.4951,-0.4867,-0.4304,-0.4937,-0.4929,-0.4923,0,-0.6709,-0.678,-0.6786,-0.6774,-0.6763,-0.6742,-0.6696,-0.6586,-0.6481,-0.6423,-0.6255,-0.6197,-0.6108,-0.6043,-0.5975,-0.5846,-0.5617,-0.5826,-0.5816,-0.5543,-0.5147,-0.5064,-0.5002,-0.562,-0.5614,-0.5609,-0.4984,0,-0.6723,-0.675,-0.6771,-0.6756,-0.6743,-0.6745,-0.669,-0.6645,-0.6595,-0.6513,-0.6373,-0.6292,-0.6143,-0.6147,-0.6122,-0.596,-0.5869,-0.591,-0.583,-0.5802,-0.5532,-0.5484,-0.6039,-0.6038,-0.6038,-0.6037,0,0,-0.6675,-0.6698,-0.668,-0.6708,-0.6692,-0.664,-0.6638,-0.6605,-0.6533,-0.6451,-0.6474,-0.6274,-0.6234,-0.6061,-0.6078,-0.607,-0.5915,-0.6004,-0.5857,-0.5838,-0.5819,-0.556,-0.5515,-0.6036,-0.6036,-0.6036,-0.6035,0,-0.6662,-0.6658,-0.6672,-0.6671,-0.665,-0.6611,-0.6624,-0.6576,-0.6531,-0.6484,-0.6394,-0.6313,-0.6229,-0.6117,-0.6061,-0.6066,-0.5906,-0.6072,-0.6023,-0.5858,-0.584,-0.5823,-0.5565,-0.5525,-0.6034,-0.6034,-0.6034,0,-0.661,-0.6608,-0.6602,-0.6604,-0.6569,-0.6567,-0.6523,-0.6521,-0.6496,-0.6388,-0.6324,-0.6264,-0.6166,-0.6091,-0.606,-0.6024,-0.5843,-0.5978,-0.5981,-0.5949,-0.5774,-0.5756,-0.574,-0.5936,-0.5936,-0.5935,0,0,-0.6593,-0.6601,-0.6571,-0.6592,-0.6587,-0.6534,-0.653,-0.649,-0.6432,-0.6402,-0.632,-0.6231,-0.6166,-0.6102,-0.605,-0.5983,-0.5848,-0.5967,-0.5971,-0.5975,-0.5946,-0.5774,-0.5758,-0.5934,-0.5934,-0.5934,0,0,-0.6572,-0.6545,-0.6503,-0.6542,-0.6516,-0.6468,-0.6476,-0.6449,-0.6382,-0.6355,-0.625,-0.622,-0.6168,-0.6107,-0.6104,-0.6011,-0.5993,-0.5992,-0.6024,-0.6029,-0.6034,-0.6009,-0.6016,0,0,0,0,0,-0.6502,-0.6553,-0.6516,-0.6516,-0.6485,-0.6485,-0.6478,-0.6423,-0.6395,-0.6402,-0.6303,-0.6247,-0.6073,-0.6067,-0.6047,-0.603,-0.5921,-0.5923,-0.5926,-0.5957,-0.5963,-0.5968,0,0,0,0,0,0,-0.6502,-0.6502,-0.6515,-0.6474,-0.6467,-0.6482,-0.6409,-0.6393,-0.6392,-0.6381,-0.6267,-0.6243,-0.6154,-0.6072,-0.6055,-0.6041,-0.6022,-0.5922,-0.5924,-0.5926,-0.5959,-0.5964,-0.5968,0,0,0,0,0,-0.6502,-0.6502,-0.6469,-0.6471,-0.6466,-0.6408,-0.6406,-0.6392,-0.6381,-0.627,-0.6246,-0.6345,-0.6157,-0.6135,-0.6062,-0.605,-0.6033,-0.6027,-0.5923,-0.5925,-0.5926,-0.5961,0,0,0,0,0,0,-0.6502,-0.647,-0.6466,-0.6462,-0.6457,-0.6405,-0.6394,-0.6392,-0.6265,-0.6248,-0.634,-0.6333,-0.6159,-0.6142,-0.6126,-0.6057,-0.6042,-0.6036,-0.6032,-0.5925,-0.5926,-0.5927,0,0,0,0,0,0,-0.6471,-0.6467,-0.6463,-0.6448,-0.6441,-0.6402,-0.6393,-0.6338,-0.6262,-0.6339,-0.6332,-0.6338,-0.6168,-0.6147,-0.6134,-0.6051,-0.6049,-0.6043,-0.6039,-0.6037,-0.5926,-0.5926,0,0,0,0,0,0,-0.6468,-0.6465,-0.6447,-0.6442,-0.6436,-0.6379,-0.6347,-0.6302,-0.6302,-0.6342,-0.6297,-0.6294,-0.6174,-0.616,-0.614,-0.6063,-0.6054,-0.6049,-0.6045,-0.6042,-0.604,0,0,0,0,0,0,0,-0.6466,-0.6504,-0.6502,-0.6438,-0.6432,-0.6428,-0.6426,-0.6423,-0.6302,-0.63,-0.6297,-0.6295,-0.6083,-0.6076,-0.607,-0.6074,0,0,-0.605,-0.6047,0,0,0,0,0,0,0,0,-0.6504,-0.6504,-0.6502,-0.6502,-0.6501,-0.6427,-0.6426,-0.6424,-0.6302,-0.63,-0.6298,-0.6296,-0.6081,-0.6076,-0.6071,0,0,0,0,0,0,0,0,0,0,0,0,0,0,0,-0.6502,-0.6502,0,-0.6427,-0.6426,-0.6424,-0.6301,-0.63,-0.6298,-0.6297,-0.608,-0.6075,-0.6071,0,0,0,0,0,0,0,0,0,0,0,0,0,0,0,0,0,0,0,0,0,0,0,0,0,0,0,0,0,0,0,0,0,0,0,0,0,0,0,0,0,0,0,0,0,0,0,0,0,0,0,0,0,0,0,0,0,0,0,0,0,0,0,0,0,0,0,0,0]}],[{"header":{"parameterUnit":"kt","parameterCategory":2,"dx":1,"dy":1,"la1":30.253999710083008,"la2":30.299108505249023,"lo1":-89.0895004272461,"lo2":-89.04439544677734,"nx":28,"ny":28,"refTime":"2022-10-06T21:00:00:Z","depth":"0","parameterNumber":3,"parameterNumberName":"V-component_of_CURRENTS"},"data":[-0.1788,-0.1562,-0.141,-0.1038,-0.0886,-0.0575,-0.042,-0.028,-0.0172,0.0055,0.0204,0.0367,0.0639,0.0928,0.1061,0.1075,0.1255,0.1181,0.1466,0.1264,0.1272,0.128,0.1152,0.1211,0.1211,0.1497,0.15,0.1502,-0.1832,-0.168,-0.1538,-0.1258,-0.1085,-0.1025,-0.0831,-0.0645,-0.0363,-0.0243,0.0083,0.0361,0.062,0.0792,0.0924,0.1052,0.1077,0.1177,0.113,0.1217,0.1041,0.0895,0.0899,0.0899,0.0899,0.0899,0.0899,0.0899,-0.1885,-0.1805,-0.1585,-0.1363,-0.1252,-0.1093,-0.0924,-0.078,-0.055,-0.021,-0.0081,0.0245,0.0471,0.0939,0.1087,0.1175,0.1286,0.1214,0.1301,0.1337,0.1298,0.1016,0.12,0.1202,0.1204,0.1206,0.1208,0,-0.1831,-0.1733,-0.1581,-0.1383,-0.1251,-0.1084,-0.0907,-0.0831,-0.057,-0.0363,-0.0099,0.0126,0.0487,0.0737,0.1122,0.126,0.1406,0.1398,0.1497,0.1134,0.1068,0.1148,0.0928,0.1146,0.1148,0.115,0.1151,0.1152,-0.1745,-0.1673,-0.1394,-0.13,-0.1178,-0.1019,-0.0905,-0.0671,-0.0539,-0.023,-0.015,0.0182,0.0417,0.0916,0.1087,0.1408,0.1496,0.1443,0.128,0.1281,0.136,0.1365,0.1409,0.1176,0.1173,0.117,0.1168,0,-0.1667,-0.1506,-0.1355,-0.1086,-0.1014,-0.0932,-0.07,-0.0574,-0.0377,-0.0193,-0.0121,0.0178,0.0453,0.0724,0.1071,0.1145,0.1413,0.1456,0.1183,0.1185,0.125,0.129,0.1611,0.1689,0.1617,0.1618,0.1618,0,-0.1488,-0.1409,-0.115,-0.1091,-0.095,-0.0798,-0.0648,-0.0499,-0.0282,-0.0161,0.0041,0.0182,0.0436,0.066,0.0799,0.1031,0.112,0.1118,0.116,0.0956,0.093,0.1036,0.1071,0.1243,0.1241,0.1238,0.1236,0,-0.142,-0.1221,-0.1109,-0.1047,-0.0811,-0.0737,-0.0624,-0.0433,-0.0333,-0.009,0.001,0.0239,0.0354,0.0547,0.0701,0.0636,0.1027,0.0977,0.106,0.1057,0.0967,0.0944,0.1194,0.1233,0.1232,0.1231,0.123,0,-0.1292,-0.1171,-0.1057,-0.0853,-0.082,-0.0744,-0.0547,-0.0453,-0.0249,-0.0174,-0.0019,0.007,0.0262,0.0209,0.0513,0.0395,0.052,0.062,0.0635,0.0606,0.0565,0.0623,0.0776,0.0832,0.0772,0.0767,0.0763,0,-0.1233,-0.1117,-0.1031,-0.0916,-0.0846,-0.0743,-0.0639,-0.054,-0.0437,-0.0286,-0.0185,-0.0042,-0.0076,0.0005,0.0118,0.0264,0.0404,0.0225,0.0552,0.0563,0.0479,0.0646,0.0445,0.0712,0.0708,0.0714,0.0718,0,-0.123,-0.1048,-0.1052,-0.0983,-0.088,-0.0831,-0.0728,-0.0612,-0.0522,-0.0452,-0.0309,-0.0174,-0.0134,-0.0054,0.0013,0.0131,0.0313,0.0127,0.0135,0.0234,0.0639,0.0576,0.0608,0.0337,0.0343,0.0347,0.0674,0,-0.1135,-0.1067,-0.1039,-0.096,-0.0905,-0.0858,-0.0787,-0.0723,-0.0687,-0.0633,-0.048,-0.0381,-0.0228,-0.0185,-0.0166,0.0026,0.0038,0.0034,0.0027,0.012,0.0249,0.0283,-0.0126,-0.0126,-0.0126,-0.0126,0,0,-0.1166,-0.1092,-0.1045,-0.1004,-0.0953,-0.0917,-0.0873,-0.0825,-0.0739,-0.0687,-0.0713,-0.0467,-0.04,-0.0211,-0.0193,-0.0154,-0.0074,-0.0147,0.0059,0.0079,0.0098,0.0225,0.0258,-0.0126,-0.0126,-0.0126,-0.0126,0,-0.115,-0.1096,-0.1064,-0.1017,-0.0967,-0.0918,-0.0911,-0.0847,-0.0823,-0.0737,-0.0687,-0.0586,-0.0445,-0.0344,-0.0278,-0.0172,-0.01,-0.0142,-0.0097,0.0052,0.0072,0.0091,0.0219,0.0249,-0.0127,-0.0127,-0.0127,0,-0.1166,-0.1115,-0.1088,-0.1007,-0.097,-0.0916,-0.0922,-0.0888,-0.0842,-0.0802,-0.0708,-0.0643,-0.0535,-0.0418,-0.0361,-0.0366,-0.0119,-0.022,-0.0217,-0.0202,-0.0048,-0.0025,-0.0005,-0.0262,-0.0263,-0.0264,0,0,-0.1169,-0.112,-0.1053,-0.1002,-0.098,-0.0934,-0.0904,-0.0897,-0.084,-0.0822,-0.0747,-0.0663,-0.0567,-0.051,-0.0425,-0.0309,-0.0233,-0.024,-0.0234,-0.0229,-0.0212,-0.0057,-0.0035,-0.0267,-0.0267,-0.0267,0,0,-0.1172,-0.1091,-0.1081,-0.1017,-0.0969,-0.0904,-0.0879,-0.0866,-0.0813,-0.0827,-0.0752,-0.073,-0.0624,-0.0568,-0.062,-0.0411,-0.0432,-0.042,-0.0453,-0.0444,-0.0438,-0.0444,-0.0594,0,0,0,0,0,-0.1139,-0.1098,-0.1089,-0.1071,-0.0973,-0.0904,-0.0892,-0.0867,-0.0881,-0.0864,-0.0812,-0.0783,-0.0579,-0.0623,-0.0596,-0.0526,-0.0307,-0.03,-0.0293,-0.0308,-0.03,-0.0292,0,0,0,0,0,0,-0.1131,-0.111,-0.109,-0.1022,-0.0999,-0.0906,-0.0917,-0.091,-0.0882,-0.0884,-0.0796,-0.078,-0.0733,-0.0633,-0.0609,-0.0543,-0.0602,-0.0304,-0.0298,-0.0293,-0.0305,-0.0298,-0.0292,0,0,0,0,0,-0.1125,-0.1108,-0.0959,-0.1023,-0.1003,-0.0955,-0.092,-0.0913,-0.0898,-0.0807,-0.0794,-0.0883,-0.0733,-0.071,-0.0618,-0.0555,-0.0618,-0.0609,-0.03,-0.0296,-0.0291,-0.0302,0,0,0,0,0,0,-0.1121,-0.1105,-0.0954,-0.0947,-0.1042,-0.096,-0.0948,-0.0917,-0.0823,-0.081,-0.089,-0.0892,-0.0733,-0.0714,-0.0696,-0.0562,-0.0631,-0.0622,-0.0617,-0.0297,-0.0293,-0.029,0,0,0,0,0,0,-0.1114,-0.11,-0.0951,-0.0977,-0.0972,-0.0965,-0.0954,-0.0857,-0.082,-0.0911,-0.091,-0.0891,-0.0741,-0.0717,-0.0703,-0.0555,-0.0641,-0.0632,-0.0627,-0.0623,-0.0294,-0.0291,0,0,0,0,0,0,-0.1107,-0.1095,-0.0979,-0.0975,-0.0972,-0.089,-0.0877,-0.0769,-0.0874,-0.0914,-0.0878,-0.0881,-0.0742,-0.0729,-0.0708,-0.0566,-0.0558,-0.0641,-0.0635,-0.0631,-0.0628,0,0,0,0,0,0,0,-0.1102,-0.1195,-0.0994,-0.0974,-0.0971,-0.0878,-0.0876,-0.0875,-0.0874,-0.0876,-0.0878,-0.088,-0.0689,-0.068,-0.067,-0.0575,0,0,-0.0641,-0.0637,0,0,0,0,0,0,0,0,-0.1199,-0.1196,-0.0994,-0.0992,-0.099,-0.0878,-0.0876,-0.0875,-0.0875,-0.0876,-0.0878,-0.0879,-0.0686,-0.0679,-0.0671,0,0,0,0,0,0,0,0,0,0,0,0,0,0,0,-0.0993,-0.0992,0,-0.0877,-0.0876,-0.0875,-0.0875,-0.0876,-0.0877,-0.0878,-0.0684,-0.0678,-0.0672,0,0,0,0,0,0,0,0,0,0,0,0,0,0,0,0,0,0,0,0,0,0,0,0,0,0,0,0,0,0,0,0,0,0,0,0,0,0,0,0,0,0,0,0,0,0,0,0,0,0,0,0,0,0,0,0,0,0,0,0,0,0,0,0,0,0,0,0,0]}]],[[{"header":{"parameterUnit":"kt","parameterCategory":2,"dx":1,"dy":1,"la1":30.253999710083008,"la2":30.299108505249023,"lo1":-89.0895004272461,"lo2":-89.04439544677734,"nx":28,"ny":28,"refTime":"2022-10-06T21:00:00:Z","depth":"2","parameterNumber":2,"parameterNumberName":"U-component_of_CURRENTS"},"data":[-0.3977,-0.3586,-0.3574,-0.2939,-0.2803,-0.231,-0.206,-0.1715,-0.1479,-0.0796,-0.0566,-0.0306,-0.0703,-0.0509,-0.0545,-0.0622,-0.097,-0.0589,-0.1184,-0.1369,-0.1441,-0.173,-0.1952,0,0,0,0,0,-0.4438,-0.4355,-0.4138,-0.3918,-0.362,-0.3747,-0.3415,-0.3063,-0.2522,-0.2214,-0.1699,-0.1242,-0.0886,-0.1085,-0.1003,-0.0994,-0.1063,-0.1124,-0.1241,-0.1316,-0.1386,-0.1487,-0.0628,-0.0628,-0.0628,-0.0628,0,0,-0.5224,-0.5076,-0.4948,-0.4729,-0.4612,-0.4319,-0.4026,-0.3851,-0.3475,-0.2914,-0.2983,-0.2403,-0.233,-0.1642,-0.1562,-0.1668,-0.1853,-0.1909,-0.1946,-0.1991,-0.2105,-0.2115,-0.1421,-0.1426,-0.143,-0.1433,-0.1436,0,-0.5742,-0.5769,-0.5653,-0.5462,-0.5321,-0.5103,-0.4932,-0.4761,-0.4663,-0.4379,-0.3927,-0.3573,-0.3101,-0.2617,-0.2316,-0.2178,-0.2642,-0.2366,-0.3023,-0.2716,-0.2729,-0.2704,-0.2784,-0.2141,-0.215,-0.2156,-0.2161,-0.2165,-0.6241,-0.6163,-0.6115,-0.598,-0.5933,-0.5775,-0.5597,-0.5599,-0.5376,-0.5047,-0.4807,-0.4438,-0.3993,-0.3442,-0.3274,-0.2917,-0.33,-0.2571,-0.2835,-0.355,-0.3511,-0.3568,-0.362,-0.2258,-0.2246,-0.2237,-0.2229,0,-0.6384,-0.6489,-0.6371,-0.6311,-0.6282,-0.6145,-0.5966,-0.5745,-0.5668,-0.5281,-0.5197,-0.4979,-0.4613,-0.4425,-0.4067,-0.3995,-0.3701,-0.3561,-0.3287,-0.3172,-0.3643,-0.3686,-0.3106,-0.3096,-0.3088,-0.3081,-0.3075,0,-0.6566,-0.652,-0.6548,-0.6495,-0.634,-0.6379,-0.6148,-0.6079,-0.5876,-0.5574,-0.5578,-0.529,-0.5168,-0.4849,-0.4768,-0.4335,-0.4324,-0.4214,-0.4115,-0.3904,-0.3876,-0.4539,-0.4572,-0.4304,-0.4309,-0.4314,-0.4318,0,-0.6583,-0.6635,-0.66,-0.6599,-0.6533,-0.6476,-0.6425,-0.6247,-0.6076,-0.5884,-0.5684,-0.5505,-0.5297,-0.5144,-0.4939,-0.5066,-0.4486,-0.4615,-0.4308,-0.4293,-0.3904,-0.3867,-0.4324,-0.4324,-0.4326,-0.4327,-0.4329,0,-0.6677,-0.6677,-0.668,-0.6621,-0.6596,-0.6581,-0.6374,-0.6327,-0.6113,-0.6004,-0.5843,-0.5732,-0.555,-0.5639,-0.5271,-0.5425,-0.526,-0.5127,-0.5101,-0.4946,-0.4937,-0.4134,-0.3828,-0.4768,-0.4774,-0.478,-0.4785,0,-0.6647,-0.6693,-0.6727,-0.6705,-0.668,-0.6613,-0.6575,-0.6445,-0.6325,-0.6158,-0.6028,-0.5889,-0.5966,-0.5865,-0.5773,-0.5602,-0.5428,-0.5695,-0.5161,-0.5142,-0.5013,-0.4835,-0.4527,-0.3948,-0.486,-0.4853,-0.4847,0,-0.6624,-0.6685,-0.6689,-0.6616,-0.661,-0.6576,-0.6573,-0.6437,-0.6313,-0.6267,-0.6093,-0.6079,-0.5979,-0.5932,-0.5882,-0.5762,-0.5538,-0.5739,-0.5729,-0.5454,-0.5072,-0.495,-0.4886,-0.5535,-0.5529,-0.5524,-0.4907,0,-0.6587,-0.661,-0.6666,-0.6549,-0.6569,-0.6585,-0.6479,-0.6458,-0.6385,-0.6276,-0.6165,-0.6114,-0.5995,-0.6008,-0.5997,-0.5864,-0.5769,-0.5807,-0.5731,-0.571,-0.5442,-0.5395,-0.5936,-0.5935,-0.5935,-0.5934,0,0,-0.6479,-0.6464,-0.6407,-0.643,-0.642,-0.6314,-0.6311,-0.6298,-0.6248,-0.6168,-0.6182,-0.6048,-0.6049,-0.5922,-0.5936,-0.5956,-0.5802,-0.5901,-0.5762,-0.5744,-0.5727,-0.547,-0.5426,-0.5933,-0.5933,-0.5933,-0.5933,0,-0.6377,-0.6364,-0.6365,-0.6353,-0.6298,-0.6243,-0.6266,-0.6213,-0.6182,-0.617,-0.6086,-0.6042,-0.6038,-0.5943,-0.5903,-0.5951,-0.5795,-0.5962,-0.5927,-0.5764,-0.5747,-0.5731,-0.5475,-0.5436,-0.5932,-0.5932,-0.5932,0,-0.6197,-0.6148,-0.6128,-0.6108,-0.6072,-0.6076,-0.6015,-0.6071,-0.6048,-0.5972,-0.5994,-0.5955,-0.5895,-0.5875,-0.588,-0.5847,-0.5737,-0.5868,-0.5871,-0.5846,-0.5674,-0.5656,-0.5641,-0.5825,-0.5824,-0.5824,0,0,-0.6095,-0.6084,-0.5983,-0.6059,-0.6053,-0.599,-0.604,-0.5984,-0.5969,-0.598,-0.5949,-0.5904,-0.5875,-0.5856,-0.5847,-0.5859,-0.5728,-0.5855,-0.586,-0.5864,-0.5841,-0.5673,-0.5658,-0.5823,-0.5823,-0.5823,0,0,-0.6048,-0.5909,-0.5787,-0.5905,-0.5862,-0.5837,-0.5954,-0.5915,-0.5938,-0.5914,-0.5848,-0.5837,-0.5858,-0.5833,-0.5819,-0.58,-0.5779,-0.5784,-0.5796,-0.5802,-0.5807,-0.5774,-0.5728,0,0,0,0,0,-0.5749,-0.5903,-0.5789,-0.5791,-0.5792,-0.5842,-0.5856,-0.5859,-0.5834,-0.5905,-0.5848,-0.5808,-0.5779,-0.5766,-0.5769,-0.5765,-0.5805,-0.5808,-0.5811,-0.5834,-0.5841,-0.5847,0,0,0,0,0,0,-0.5748,-0.574,-0.579,-0.5751,-0.5755,-0.5837,-0.5742,-0.5745,-0.5826,-0.5822,-0.5814,-0.5805,-0.5736,-0.5762,-0.5766,-0.5761,-0.5726,-0.5806,-0.5809,-0.5811,-0.5837,-0.5842,-0.5847,0,0,0,0,0,-0.5748,-0.5742,-0.5721,-0.5755,-0.5758,-0.5779,-0.5738,-0.574,-0.5812,-0.5752,-0.5746,-0.582,-0.5738,-0.5738,-0.5764,-0.576,-0.5724,-0.5725,-0.5808,-0.581,-0.5812,-0.5839,0,0,0,0,0,0,-0.5748,-0.5759,-0.5725,-0.5731,-0.5726,-0.5778,-0.5775,-0.5737,-0.5735,-0.5734,-0.5745,-0.574,-0.574,-0.574,-0.574,-0.576,-0.5721,-0.5723,-0.5724,-0.5809,-0.5811,-0.5812,0,0,0,0,0,0,-0.5764,-0.5762,-0.5728,-0.569,-0.5692,-0.5778,-0.5774,-0.5798,-0.5733,-0.5726,-0.5724,-0.5742,-0.5719,-0.5742,-0.5741,-0.5782,-0.572,-0.5721,-0.5722,-0.5723,-0.5811,-0.5812,0,0,0,0,0,0,-0.5766,-0.5765,-0.5688,-0.569,-0.5691,-0.5758,-0.5799,-0.5785,-0.5752,-0.5724,-0.5744,-0.5741,-0.5721,-0.5721,-0.5743,-0.5784,-0.5783,-0.572,-0.5721,-0.5721,-0.5722,0,0,0,0,0,0,0,-0.5767,-0.5743,-0.5693,-0.5689,-0.569,-0.579,-0.5791,-0.5792,-0.5751,-0.5748,-0.5745,-0.5742,-0.5712,-0.5713,-0.5715,-0.5785,0,0,-0.572,-0.572,0,0,0,0,0,0,0,0,-0.5747,-0.5744,-0.5693,-0.5694,-0.5696,-0.579,-0.5791,-0.5792,-0.575,-0.5748,-0.5746,-0.5743,-0.5712,-0.5713,-0.5715,0,0,0,0,0,0,0,0,0,0,0,0,0,0,0,-0.5693,-0.5694,0,-0.579,-0.5791,-0.5792,-0.575,-0.5748,-0.5746,-0.5744,-0.5713,-0.5714,-0.5715,0,0,0,0,0,0,0,0,0,0,0,0,0,0,0,0,0,0,0,0,0,0,0,0,0,0,0,0,0,0,0,0,0,0,0,0,0,0,0,0,0,0,0,0,0,0,0,0,0,0,0,0,0,0,0,0,0,0,0,0,0,0,0,0,0,0,0,0,0]}],[{"header":{"parameterUnit":"kt","parameterCategory":2,"dx":1,"dy":1,"la1":30.253999710083008,"la2":30.299108505249023,"lo1":-89.0895004272461,"lo2":-89.04439544677734,"nx":28,"ny":28,"refTime":"2022-10-06T21:00:00:Z","depth":"2","parameterNumber":3,"parameterNumberName":"V-component_of_CURRENTS"},"data":[-0.1493,-0.1339,-0.126,-0.09,-0.071,-0.0404,-0.0284,-0.0318,-0.033,-0.0422,-0.0396,-0.0529,-0.0369,-0.0186,-0.008,0.0136,0.0352,0.016,0.0207,0.0381,0.0419,0.0603,0.0304,0,0,0,0,0,-0.1568,-0.1436,-0.1332,-0.11,-0.0934,-0.0865,-0.0727,-0.0645,-0.0528,-0.0572,-0.0493,-0.0431,-0.0353,-0.0067,0.0153,0.0208,0.0302,0.0357,0.0499,0.0533,0.0567,0.0362,0.0209,0.0212,0.0214,0.0216,0,0,-0.1632,-0.1578,-0.1385,-0.1246,-0.1125,-0.099,-0.0876,-0.0799,-0.0698,-0.0517,-0.0518,-0.0372,-0.0268,0.0011,0.0241,0.0497,0.0479,0.0618,0.064,0.0667,0.0457,0.0301,0.0332,0.0334,0.0335,0.0337,0.0338,0,-0.1603,-0.1541,-0.142,-0.1266,-0.1162,-0.1055,-0.0908,-0.088,-0.0648,-0.0567,-0.0391,-0.0285,-0.0036,0.016,0.0439,0.0586,0.0945,0.0901,0.1242,0.0829,0.0688,0.0684,0.0677,0.0825,0.083,0.0833,0.0836,0.0838,-0.1545,-0.1488,-0.1289,-0.1214,-0.1102,-0.0993,-0.0898,-0.0717,-0.0598,-0.0366,-0.0292,-0.003,0.0102,0.0501,0.0684,0.0983,0.1156,0.1019,0.0886,0.1033,0.1031,0.1008,0.0986,0.0888,0.0882,0.0877,0.0872,0,-0.1493,-0.1344,-0.123,-0.1001,-0.0947,-0.0893,-0.072,-0.0607,-0.0435,-0.0273,-0.0199,0.0071,0.032,0.062,0.1002,0.1031,0.1255,0.1271,0.1059,0.1041,0.1037,0.1006,0.125,0.1243,0.1238,0.1233,0.1229,0,-0.1335,-0.1271,-0.1047,-0.0989,-0.0892,-0.0739,-0.0621,-0.0476,-0.0276,-0.0174,0.005,0.0154,0.0475,0.0685,0.0864,0.0996,0.1185,0.1036,0.1056,0.0926,0.0887,0.1172,0.1145,0.137,0.1368,0.1365,0.1363,0,-0.127,-0.1102,-0.1002,-0.0945,-0.0733,-0.0663,-0.0562,-0.0373,-0.0302,-0.0036,0.0033,0.0301,0.0402,0.063,0.0779,0.0739,0.1104,0.1092,0.1,0.0984,0.0952,0.0917,0.136,0.136,0.1359,0.1358,0.1357,0,-0.114,-0.1035,-0.0934,-0.076,-0.0732,-0.066,-0.0478,-0.039,-0.0183,-0.0113,0.0051,0.0147,0.0352,0.0304,0.0623,0.0502,0.0636,0.0739,0.0755,0.0541,0.0484,0.0594,0.0697,0.0895,0.089,0.0885,0.0882,0,-0.1076,-0.0977,-0.0886,-0.0792,-0.0734,-0.0633,-0.0531,-0.0443,-0.0344,-0.0197,-0.009,0.0054,0.0031,0.0109,0.0226,0.0381,0.0522,0.034,0.0683,0.0694,0.0422,0.0527,0.0385,0.064,0.0825,0.0831,0.0835,0,-0.1063,-0.0888,-0.0893,-0.0839,-0.074,-0.0707,-0.0601,-0.0498,-0.0414,-0.0347,-0.0207,-0.0066,-0.0024,0.0062,0.0136,0.0253,0.0429,0.0255,0.0263,0.0361,0.0756,0.0483,0.0496,0.0451,0.0457,0.0462,0.0791,0,-0.0952,-0.0897,-0.0871,-0.0808,-0.0758,-0.0724,-0.0661,-0.0601,-0.0568,-0.052,-0.0367,-0.0263,-0.0102,-0.0062,-0.0035,0.0159,0.0173,0.0172,0.0172,0.0256,0.0387,0.0422,0.0016,0.0017,0.0017,0.0017,0,0,-0.0976,-0.0922,-0.0882,-0.0847,-0.08,-0.0774,-0.0742,-0.0694,-0.0615,-0.0566,-0.0588,-0.0332,-0.0257,-0.0063,-0.0047,-0.0009,0.0074,0.0002,0.0199,0.0219,0.0237,0.0366,0.0399,0.0018,0.0018,0.0018,0.0018,0,-0.0959,-0.0921,-0.0898,-0.0859,-0.0821,-0.0778,-0.0773,-0.0719,-0.0693,-0.0614,-0.0547,-0.0444,-0.0298,-0.0188,-0.0117,-0.0022,0.006,0.0008,0.0045,0.0196,0.0215,0.0232,0.0361,0.0391,0.0019,0.0019,0.0019,0,-0.0974,-0.0934,-0.0915,-0.0859,-0.0827,-0.0779,-0.0781,-0.0753,-0.0711,-0.0658,-0.0554,-0.0484,-0.0364,-0.0249,-0.019,-0.0191,0.0051,-0.005,-0.0049,-0.0024,0.0133,0.0154,0.0173,-0.0068,-0.0069,-0.007,0,0,-0.0976,-0.0939,-0.0893,-0.0858,-0.0838,-0.0796,-0.0765,-0.0761,-0.0701,-0.0678,-0.0593,-0.0498,-0.0395,-0.0335,-0.0244,-0.0132,-0.0047,-0.0065,-0.0061,-0.0058,-0.0032,0.0124,0.0145,-0.0073,-0.0073,-0.0073,0,0,-0.0976,-0.0917,-0.0919,-0.087,-0.0835,-0.0773,-0.0739,-0.0726,-0.0666,-0.0674,-0.0584,-0.0559,-0.0448,-0.0386,-0.0437,-0.0228,-0.0239,-0.0226,-0.0281,-0.0274,-0.027,-0.0267,-0.0398,0,0,0,0,0,-0.096,-0.0925,-0.0928,-0.0914,-0.0836,-0.0779,-0.0766,-0.0727,-0.0728,-0.0714,-0.0649,-0.0611,-0.0392,-0.0436,-0.0407,-0.0344,-0.0111,-0.0104,-0.0098,-0.014,-0.0134,-0.0129,0,0,0,0,0,0,-0.0954,-0.094,-0.0927,-0.0868,-0.0849,-0.078,-0.0775,-0.0765,-0.073,-0.0729,-0.0626,-0.0607,-0.0552,-0.0445,-0.0421,-0.0361,-0.0406,-0.0108,-0.0102,-0.0097,-0.0138,-0.0133,-0.0129,0,0,0,0,0,-0.0949,-0.0938,-0.0832,-0.0867,-0.085,-0.0788,-0.0777,-0.0768,-0.0747,-0.0643,-0.0626,-0.0719,-0.0554,-0.0528,-0.043,-0.0374,-0.0423,-0.0414,-0.0104,-0.01,-0.0096,-0.0136,0,0,0,0,0,0,-0.0945,-0.093,-0.0826,-0.0818,-0.0878,-0.0791,-0.0781,-0.0771,-0.0663,-0.0646,-0.0731,-0.0731,-0.0554,-0.0534,-0.0514,-0.0381,-0.0436,-0.0427,-0.0421,-0.0101,-0.0097,-0.0094,0,0,0,0,0,0,-0.0935,-0.0925,-0.0822,-0.0839,-0.0833,-0.0794,-0.0785,-0.0688,-0.066,-0.0757,-0.0754,-0.0732,-0.0559,-0.0538,-0.0522,-0.0375,-0.0446,-0.0438,-0.0432,-0.0428,-0.0098,-0.0095,0,0,0,0,0,0,-0.0929,-0.092,-0.0842,-0.0837,-0.0831,-0.0739,-0.0705,-0.0617,-0.0711,-0.0761,-0.0714,-0.0715,-0.0562,-0.0547,-0.0528,-0.0387,-0.0378,-0.0446,-0.044,-0.0436,-0.0433,0,0,0,0,0,0,0,-0.0924,-0.1006,-0.087,-0.0834,-0.083,-0.074,-0.0738,-0.0736,-0.0712,-0.0713,-0.0714,-0.0714,-0.0496,-0.0486,-0.0477,-0.0398,0,0,-0.0447,-0.0443,0,0,0,0,0,0,0,0,-0.1008,-0.1006,-0.0869,-0.0867,-0.0865,-0.0739,-0.0738,-0.0737,-0.0712,-0.0713,-0.0713,-0.0714,-0.0493,-0.0486,-0.0478,0,0,0,0,0,0,0,0,0,0,0,0,0,0,0,-0.0869,-0.0868,0,-0.0739,-0.0738,-0.0737,-0.0712,-0.0713,-0.0713,-0.0714,-0.0491,-0.0485,-0.0478,0,0,0,0,0,0,0,0,0,0,0,0,0,0,0,0,0,0,0,0,0,0,0,0,0,0,0,0,0,0,0,0,0,0,0,0,0,0,0,0,0,0,0,0,0,0,0,0,0,0,0,0,0,0,0,0,0,0,0,0,0,0,0,0,0,0,0,0,0]}]],[[{"header":{"parameterUnit":"kt","parameterCategory":2,"dx":1,"dy":1,"la1":30.253999710083008,"la2":30.299108505249023,"lo1":-89.0895004272461,"lo2":-89.04439544677734,"nx":28,"ny":28,"refTime":"2022-10-06T21:00:00:Z","depth":"4","parameterNumber":2,"parameterNumberName":"U-component_of_CURRENTS"},"data":[-0.0018,-0.005,-0.004,0.0035,0.0069,0.0126,0.0152,0.015,0.0165,0.0138,0.005,0.0004,-0.0175,-0.0058,-0.0327,-0.0374,-0.0949,-0.0687,-0.0688,-0.1732,-0.1787,-0.1836,-0.2021,0,0,0,0,0,-0.0002,-0.0035,-0.0031,-0.0029,0.0014,0.003,0.0045,0.0005,-0.0018,0.0084,0.0022,0.0005,-0.0141,-0.0215,-0.0342,-0.044,-0.1119,-0.0593,-0.1479,-0.1766,-0.1827,-0.1987,0,0,0,0,0,0,0.003,-0.0001,-0.0066,-0.0087,-0.007,-0.0013,-0.0053,-0.0021,-0.006,-0.0155,0.0001,-0.0186,-0.0356,-0.0553,-0.0506,-0.067,-0.1062,-0.1331,-0.1411,-0.1473,-0.1519,-0.1188,-0.0459,0,0,0,0,0,0.0016,-0.002,-0.0084,-0.0121,-0.0113,-0.0151,-0.0176,-0.0164,-0.0339,-0.0484,-0.0395,-0.0545,-0.0568,-0.1009,-0.0902,-0.113,-0.2006,-0.1661,-0.1714,-0.2495,-0.2305,-0.2261,-0.2303,-0.2058,-0.2066,-0.2071,-0.2074,0,-0.0033,-0.0039,-0.0137,-0.0152,-0.0206,-0.0277,-0.0323,-0.052,-0.0616,-0.0741,-0.0731,-0.0912,-0.1209,-0.1204,-0.1666,-0.1871,-0.1902,-0.1808,-0.2638,-0.2405,-0.234,-0.2369,-0.2393,-0.2123,-0.2119,-0.2115,-0.2111,0,-0.0105,-0.0185,-0.0187,-0.031,-0.0331,-0.0361,-0.0499,-0.0586,-0.0873,-0.1029,-0.1176,-0.1597,-0.1852,-0.2129,-0.2512,-0.2635,-0.2714,-0.248,-0.272,-0.265,-0.2478,-0.2483,-0.2204,-0.2186,-0.2171,-0.2158,-0.2147,0,-0.0282,-0.0262,-0.0389,-0.04,-0.0423,-0.054,-0.0661,-0.0872,-0.112,-0.1249,-0.1841,-0.1909,-0.2695,-0.2744,-0.3081,-0.3045,-0.3234,-0.3233,-0.3136,-0.3735,-0.3732,-0.358,-0.3559,-0.38,-0.3804,-0.3808,-0.3811,0,-0.0395,-0.0462,-0.0507,-0.053,-0.0693,-0.0697,-0.083,-0.1155,-0.1326,-0.1793,-0.1921,-0.2403,-0.2636,-0.2981,-0.3285,-0.3556,-0.3473,-0.3807,-0.3278,-0.3232,-0.3594,-0.3567,-0.3816,-0.3816,-0.3817,-0.3819,-0.382,0,-0.0551,-0.064,-0.0689,-0.0695,-0.0796,-0.0801,-0.1099,-0.126,-0.1607,-0.186,-0.2158,-0.242,-0.2896,-0.3094,-0.3514,-0.3601,-0.3674,-0.3801,-0.3785,-0.3243,-0.3099,-0.3294,-0.3424,-0.3425,-0.3425,-0.3426,-0.3426,0,-0.0642,-0.0706,-0.0827,-0.0828,-0.0952,-0.1238,-0.1327,-0.1587,-0.1912,-0.1984,-0.2412,-0.2591,-0.2888,-0.309,-0.339,-0.3676,-0.3735,-0.3806,-0.3543,-0.3524,-0.322,-0.3259,-0.3929,-0.3433,-0.3432,-0.3431,-0.3431,0,-0.0716,-0.0874,-0.0887,-0.0929,-0.13,-0.139,-0.1585,-0.1892,-0.2001,-0.2149,-0.2218,-0.2694,-0.2799,-0.2947,-0.3174,-0.3435,-0.3699,-0.3563,-0.3559,-0.3433,-0.3736,-0.3306,-0.3257,-0.3904,-0.3909,-0.3913,-0.3436,0,-0.085,-0.088,-0.0926,-0.1217,-0.1331,-0.1487,-0.1841,-0.1881,-0.2085,-0.2203,-0.2374,-0.2492,-0.257,-0.28,-0.2995,-0.3328,-0.3183,-0.3236,-0.3255,-0.338,-0.3116,-0.3114,-0.3032,-0.3025,-0.302,-0.3015,0,0,-0.0963,-0.1051,-0.1327,-0.1416,-0.151,-0.188,-0.1983,-0.2137,-0.2119,-0.2156,-0.2221,-0.2267,-0.2439,-0.2709,-0.2892,-0.2834,-0.2785,-0.308,-0.3259,-0.3287,-0.3313,-0.3079,-0.3084,-0.3005,-0.3002,-0.3,-0.2999,0,-0.1112,-0.1274,-0.1337,-0.1462,-0.1746,-0.1907,-0.1976,-0.2115,-0.2227,-0.2199,-0.2221,-0.2319,-0.2369,-0.253,-0.2676,-0.2737,-0.2841,-0.2882,-0.3111,-0.3209,-0.3245,-0.3276,-0.3054,-0.3063,-0.2984,-0.2985,-0.2986,0,-0.1356,-0.1505,-0.1522,-0.1743,-0.1882,-0.2,-0.2127,-0.2271,-0.2342,-0.2284,-0.217,-0.2218,-0.2339,-0.2473,-0.253,-0.2533,-0.2796,-0.2783,-0.2805,-0.2766,-0.2858,-0.2897,-0.2931,-0.2516,-0.2516,-0.2517,0,0,-0.1525,-0.1582,-0.1849,-0.1803,-0.1952,-0.2088,-0.2116,-0.2249,-0.2263,-0.2268,-0.2193,-0.2217,-0.2351,-0.243,-0.2408,-0.2501,-0.2396,-0.2748,-0.277,-0.279,-0.2764,-0.2858,-0.2892,-0.2519,-0.2519,-0.2519,0,0,-0.1571,-0.185,-0.1946,-0.1953,-0.2094,-0.2209,-0.2211,-0.2278,-0.224,-0.2286,-0.2303,-0.2311,-0.2385,-0.2359,-0.2362,-0.2677,-0.2549,-0.2544,-0.2846,-0.2871,-0.2891,-0.2886,-0.2605,0,0,0,0,0,-0.1885,-0.1831,-0.1917,-0.1942,-0.2066,-0.217,-0.2177,-0.2273,-0.232,-0.2345,-0.227,-0.2461,-0.2378,-0.2377,-0.2385,-0.2743,-0.2548,-0.2543,-0.2538,-0.2931,-0.2958,-0.2981,0,0,0,0,0,0,-0.1897,-0.1932,-0.1917,-0.2037,-0.2064,-0.2169,-0.2241,-0.2262,-0.2325,-0.2347,-0.2437,-0.246,-0.2507,-0.2388,-0.2392,-0.2738,-0.2604,-0.2546,-0.2541,-0.2537,-0.294,-0.2963,-0.2982,0,0,0,0,0,-0.1906,-0.1935,-0.2139,-0.2033,-0.2056,-0.2174,-0.2246,-0.2266,-0.2319,-0.2394,-0.242,-0.2409,-0.25,-0.2513,-0.2392,-0.2739,-0.2602,-0.2603,-0.2543,-0.2539,-0.2536,-0.2951,0,0,0,0,0,0,-0.1913,-0.1903,-0.2142,-0.2147,-0.2098,-0.2173,-0.22,-0.2268,-0.2366,-0.2391,-0.2364,-0.2379,-0.2493,-0.2505,-0.2514,-0.2744,-0.2601,-0.2602,-0.2603,-0.254,-0.2538,-0.2535,0,0,0,0,0,0,-0.1889,-0.1908,-0.2144,-0.2221,-0.2236,-0.217,-0.2196,-0.2182,-0.2368,-0.2329,-0.2346,-0.237,-0.2519,-0.2498,-0.2507,-0.2475,-0.2601,-0.2601,-0.2602,-0.2602,-0.2538,-0.2536,0,0,0,0,0,0,-0.1896,-0.1913,-0.222,-0.2231,-0.2244,-0.2304,-0.2159,-0.2297,-0.2385,-0.2323,-0.2404,-0.2413,-0.2512,-0.252,-0.25,-0.2464,-0.2472,-0.2601,-0.2601,-0.2601,-0.2602,0,0,0,0,0,0,0,-0.1902,-0.1803,-0.2124,-0.2238,-0.225,-0.2203,-0.2203,-0.2203,-0.2387,-0.2395,-0.2402,-0.2409,-0.2596,-0.2597,-0.2598,-0.2455,0,0,-0.26,-0.2601,0,0,0,0,0,0,0,0,-0.1795,-0.1801,-0.2124,-0.2126,-0.2128,-0.2203,-0.2203,-0.2203,-0.2389,-0.2395,-0.2401,-0.2406,-0.2597,-0.2597,-0.2598,0,0,0,0,0,0,0,0,0,0,0,0,0,0,0,-0.2124,-0.2126,0,-0.2203,-0.2203,-0.2203,-0.2389,-0.2394,-0.2399,-0.2404,-0.2597,-0.2597,-0.2598,0,0,0,0,0,0,0,0,0,0,0,0,0,0,0,0,0,0,0,0,0,0,0,0,0,0,0,0,0,0,0,0,0,0,0,0,0,0,0,0,0,0,0,0,0,0,0,0,0,0,0,0,0,0,0,0,0,0,0,0,0,0,0,0,0,0,0,0,0]}],[{"header":{"parameterUnit":"kt","parameterCategory":2,"dx":1,"dy":1,"la1":30.253999710083008,"la2":30.299108505249023,"lo1":-89.0895004272461,"lo2":-89.04439544677734,"nx":28,"ny":28,"refTime":"2022-10-06T21:00:00:Z","depth":"4","parameterNumber":3,"parameterNumberName":"V-component_of_CURRENTS"},"data":[-0.0938,-0.0921,-0.0927,-0.089,-0.0915,-0.0913,-0.089,-0.087,-0.0835,-0.086,-0.0912,-0.0918,-0.0995,-0.0999,-0.101,-0.1013,-0.1158,-0.1063,-0.1059,-0.1376,-0.1402,-0.1425,-0.14,0,0,0,0,0,-0.1007,-0.101,-0.0976,-0.0997,-0.1006,-0.1065,-0.1016,-0.1054,-0.1068,-0.0909,-0.1024,-0.0931,-0.0937,-0.0964,-0.0985,-0.1005,-0.1235,-0.1015,-0.128,-0.1392,-0.1421,-0.1386,0,0,0,0,0,0,-0.1099,-0.1076,-0.1149,-0.1175,-0.1192,-0.1156,-0.1194,-0.1155,-0.1176,-0.1226,-0.104,-0.1148,-0.1229,-0.1265,-0.1146,-0.1202,-0.124,-0.1265,-0.1299,-0.1327,-0.1275,-0.1153,-0.0903,0,0,0,0,0,-0.1221,-0.1284,-0.1326,-0.1373,-0.1401,-0.1423,-0.1482,-0.1417,-0.1564,-0.167,-0.1502,-0.152,-0.1402,-0.1472,-0.1474,-0.1376,-0.1705,-0.153,-0.1549,-0.1664,-0.1597,-0.1538,-0.1548,-0.153,-0.1533,-0.1536,-0.1537,0,-0.1305,-0.1363,-0.15,-0.1518,-0.1618,-0.1736,-0.1782,-0.1982,-0.1985,-0.2015,-0.1912,-0.1922,-0.1965,-0.1693,-0.1738,-0.1701,-0.1629,-0.1603,-0.1726,-0.1644,-0.1577,-0.1579,-0.1581,-0.156,-0.1558,-0.1556,-0.1554,0,-0.1353,-0.1501,-0.1571,-0.1759,-0.1815,-0.1874,-0.2033,-0.2073,-0.2311,-0.2302,-0.2365,-0.2479,-0.2361,-0.2396,-0.2241,-0.2139,-0.1952,-0.1807,-0.1991,-0.1926,-0.1627,-0.1619,-0.1598,-0.1589,-0.1582,-0.1576,-0.1571,0,-0.1473,-0.1547,-0.173,-0.1792,-0.1857,-0.2053,-0.2171,-0.2299,-0.2466,-0.2471,-0.2803,-0.2655,-0.2774,-0.2627,-0.2485,-0.2158,-0.2301,-0.194,-0.1869,-0.2101,-0.2091,-0.2147,-0.2141,-0.2204,-0.2205,-0.2205,-0.2206,0,-0.1511,-0.1677,-0.1791,-0.1843,-0.2001,-0.2092,-0.2176,-0.2382,-0.2449,-0.2736,-0.2726,-0.285,-0.2742,-0.2711,-0.2388,-0.2408,-0.2189,-0.2209,-0.1901,-0.188,-0.2148,-0.2141,-0.2206,-0.2207,-0.2207,-0.2207,-0.2207,0,-0.1614,-0.1703,-0.1863,-0.1949,-0.1985,-0.2059,-0.2181,-0.2318,-0.2509,-0.258,-0.268,-0.2689,-0.2639,-0.2487,-0.2359,-0.2346,-0.221,-0.2066,-0.2061,-0.1908,-0.1771,-0.1809,-0.1916,-0.1914,-0.1913,-0.1912,-0.1911,0,-0.1567,-0.1704,-0.1814,-0.1903,-0.1941,-0.1988,-0.2119,-0.2213,-0.2285,-0.2382,-0.2371,-0.2453,-0.2314,-0.2244,-0.2188,-0.2045,-0.2001,-0.1978,-0.1984,-0.1985,-0.1694,-0.1747,-0.1969,-0.1893,-0.1895,-0.1896,-0.1898,0,-0.15,-0.1653,-0.167,-0.1678,-0.1771,-0.1778,-0.1946,-0.2031,-0.2103,-0.2133,-0.2254,-0.224,-0.2176,-0.2207,-0.2082,-0.201,-0.1959,-0.1931,-0.1934,-0.1813,-0.1985,-0.1749,-0.1736,-0.195,-0.1954,-0.1957,-0.1885,0,-0.147,-0.1533,-0.1595,-0.1628,-0.1682,-0.1723,-0.1747,-0.1791,-0.1799,-0.1848,-0.1958,-0.1902,-0.1975,-0.1907,-0.1855,-0.1903,-0.187,-0.1869,-0.177,-0.1873,-0.1826,-0.1836,-0.1741,-0.1742,-0.1743,-0.1744,0,0,-0.1324,-0.1395,-0.1388,-0.1459,-0.1483,-0.1389,-0.1466,-0.1529,-0.1568,-0.1644,-0.1567,-0.1732,-0.1693,-0.1775,-0.1764,-0.1793,-0.1795,-0.1718,-0.1846,-0.1857,-0.1867,-0.1826,-0.1834,-0.1746,-0.1746,-0.1746,-0.1747,0,-0.1283,-0.1295,-0.1367,-0.1373,-0.1355,-0.1346,-0.135,-0.137,-0.1415,-0.1525,-0.1506,-0.1504,-0.1636,-0.1614,-0.1638,-0.1791,-0.1715,-0.1801,-0.1816,-0.185,-0.1859,-0.1868,-0.1829,-0.1835,-0.1749,-0.1749,-0.1749,0,-0.1165,-0.1158,-0.1182,-0.119,-0.1201,-0.1247,-0.1177,-0.1226,-0.129,-0.124,-0.1382,-0.1382,-0.1446,-0.1519,-0.1555,-0.1504,-0.1627,-0.16,-0.1601,-0.1671,-0.1707,-0.172,-0.1731,-0.1566,-0.1564,-0.1562,0,0,-0.1116,-0.1168,-0.1113,-0.1165,-0.1173,-0.1166,-0.1196,-0.1168,-0.1213,-0.1247,-0.1259,-0.1321,-0.1392,-0.1387,-0.148,-0.1555,-0.1576,-0.1565,-0.1574,-0.158,-0.165,-0.169,-0.1705,-0.1555,-0.1555,-0.1555,0,0,-0.1084,-0.1061,-0.1,-0.1084,-0.1049,-0.1074,-0.1145,-0.1124,-0.1215,-0.1227,-0.1203,-0.1205,-0.1294,-0.1321,-0.1236,-0.1371,-0.1356,-0.1375,-0.1268,-0.128,-0.1289,-0.1339,-0.1112,0,0,0,0,0,-0.0961,-0.1059,-0.1002,-0.1003,-0.1063,-0.1092,-0.111,-0.1093,-0.109,-0.1128,-0.1179,-0.1101,-0.1275,-0.1199,-0.1216,-0.1193,-0.1469,-0.1484,-0.1499,-0.139,-0.1403,-0.1413,0,0,0,0,0,0,-0.0961,-0.0963,-0.0999,-0.1017,-0.1028,-0.1093,-0.104,-0.1044,-0.108,-0.1071,-0.111,-0.1102,-0.1079,-0.1186,-0.1203,-0.1179,-0.1107,-0.1475,-0.1488,-0.1499,-0.1394,-0.1405,-0.1413,0,0,0,0,0,-0.096,-0.0962,-0.1039,-0.102,-0.1031,-0.1018,-0.1036,-0.1038,-0.11,-0.1065,-0.1061,-0.1067,-0.1084,-0.1093,-0.1196,-0.1171,-0.1095,-0.1101,-0.1483,-0.1493,-0.1503,-0.1399,0,0,0,0,0,0,-0.096,-0.1036,-0.1044,-0.1049,-0.0945,-0.1015,-0.102,-0.1032,-0.1092,-0.1087,-0.1016,-0.1007,-0.109,-0.1095,-0.1102,-0.1167,-0.1085,-0.1092,-0.1096,-0.1491,-0.1499,-0.1506,0,0,0,0,0,0,-0.1032,-0.1041,-0.1048,-0.0954,-0.0949,-0.1012,-0.1015,-0.1101,-0.1091,-0.1047,-0.1038,-0.101,-0.1018,-0.1098,-0.1103,-0.1246,-0.1078,-0.1084,-0.1088,-0.1091,-0.1498,-0.1504,0,0,0,0,0,0,-0.1037,-0.1045,-0.0955,-0.0952,-0.0948,-0.1029,-0.1089,-0.1133,-0.1063,-0.1047,-0.1045,-0.1036,-0.1018,-0.1027,-0.1104,-0.1246,-0.1246,-0.1078,-0.1082,-0.1085,-0.1087,0,0,0,0,0,0,0,-0.1041,-0.097,-0.0976,-0.095,-0.0947,-0.1088,-0.1093,-0.1098,-0.1061,-0.1054,-0.1047,-0.104,-0.1043,-0.105,-0.1056,-0.1246,0,0,-0.1078,-0.1081,0,0,0,0,0,0,0,0,-0.0969,-0.097,-0.0976,-0.0975,-0.0974,-0.1088,-0.1093,-0.1097,-0.106,-0.1054,-0.1048,-0.1043,-0.1045,-0.105,-0.1056,0,0,0,0,0,0,0,0,0,0,0,0,0,0,0,-0.0976,-0.0975,0,-0.1089,-0.1092,-0.1096,-0.1059,-0.1054,-0.1049,-0.1045,-0.1046,-0.1051,-0.1055,0,0,0,0,0,0,0,0,0,0,0,0,0,0,0,0,0,0,0,0,0,0,0,0,0,0,0,0,0,0,0,0,0,0,0,0,0,0,0,0,0,0,0,0,0,0,0,0,0,0,0,0,0,0,0,0,0,0,0,0,0,0,0,0,0,0,0,0,0]}]]]